Wetbulb
52.64 53.03 52.68 52.38 51.95 51.22 53.25 60.92 55.80 62.85 62.22 52.63 54.81 54.37 57.11 55.49 58.10 59.53 59.34 58.38 57.96 57.33 56.45 55.53 54.11 53.60 55.97 58.25 57.88 55.07 57.13 55.27 52.31 54.24 57.96 58.15 57.21 55.44 55.17 51.76 52.25 53.79 53.47 54.38
52.79 52.91 52.66 52.55 52.00 51.33 56.70 60.89 60.98 61.07 58.55 49.92 52.37 55.93 56.45 58.48 57.85 58.00 58.10 57.40 58.14 59.21 57.99 54.63 55.39 55.53 59.16 59.05 58.10 56.68 58.16 53.51 50.55 52.60 55.77 57.50 54.83 55.94 56.37 56.06 55.23 53.42 51.34 56.97
53.50 52.72 52.95 52.69 52.18 51.83 55.72 61.02 55.98 56.79 56.52 56.71 54.57 54.36 55.21 55.99 59.20 58.17 58.66 58.28 59.09 57.78 57.82 59.44 58.11 55.63 58.35 59.32 58.86 62.71 62.83 55.59 53.32 50.84 53.75 56.62 54.63 55.00 56.74 55.95 52.95 53.08 53.68 60.44
53.60 53.50 53.07 52.90 52.41 51.82 56.63 60.80 59.09 59.42 52.63 53.66 54.84 55.72 55.52 54.19 54.68 57.82 58.47 57.17 57.09 57.18 56.18 57.44 57.34 59.13 59.51 60.19 59.15 59.94 58.65 55.29 56.01 55.88 56.24 56.14 55.83 55.70 55.90 54.94 55.31 53.46 54.61 59.21
53.93 53.97 53.74 52.96 51.95 50.95 59.89 58.69 58.77 61.61 57.32 56.70 55.69 52.21 54.94 54.30 55.19 56.22 56.12 56.01 57.09 58.17 56.81 57.91 57.54 59.10 59.51 59.52 60.80 59.94 60.34 56.34 57.48 56.13 57.29 56.18 54.64 55.29 55.27 55.63 56.48 56.13 56.66 61.49
54.13 54.32 54.09 52.96 51.67 52.57 59.19 59.10 61.66 60.04 55.56 57.68 55.12 54.95 55.22 55.00 56.62 57.24 58.17 57.82 57.53 56.66 57.93 60.11 61.12 61.48 61.88 61.75 60.82 59.83 59.43 57.82 56.53 54.18 57.00 56.54 53.66 55.87 56.11 56.58 57.44 57.41 55.03 59.45
54.22 54.40 54.22 52.95 52.31 51.42 58.46 59.07 58.79 57.34 54.31 57.52 57.34 56.38 56.27 55.90 57.19 56.34 58.60 58.72 58.06 59.70 61.01 60.94 60.55 59.73 60.37 60.33 60.90 61.04 59.56 59.36 58.22 54.50 56.18 49.47 56.89 61.35 60.18 58.19 58.55 59.80 60.60 65.15
53.65 54.34 54.44 53.38 53.06 51.99 57.75 60.54 57.86 57.11 54.47 56.68 56.85 56.81 57.07 57.79 58.37 57.02 57.83 58.83 60.64 61.22 58.85 56.11 55.27 54.85 55.90 57.18 59.03 59.23 59.50 57.71 55.34 53.36 52.72 55.39 56.19 60.17 58.74 57.68 57.30 61.98 61.83 64.78
53.32 53.92 54.63 54.43 53.21 52.07 56.78 60.47 59.85 57.78 54.43 56.12 58.11 56.98 57.39 56.41 56.87 57.22 57.93 60.29 61.65 59.68 57.24 55.65 52.56 50.71 53.45 53.01 55.40 58.56 58.34 59.20 55.36 54.39 50.72 48.93 56.30 61.41 63.42 62.37 55.46 63.83 63.94 65.07
53.46 53.93 54.35 54.49 54.24 52.53 54.09 59.17 59.90 57.67 54.25 56.40 56.75 55.58 56.71 59.11 58.23 56.62 58.80 58.71 58.85 59.32 55.76 53.17 52.27 51.99 55.91 52.33 52.47 53.62 54.14 54.92 52.70 52.80 51.22 53.55 60.36 61.38 62.16 52.90 56.99 64.64 65.19 66.43
53.17 53.75 54.10 54.41 53.96 53.60 53.86 57.74 60.22 56.48 53.88 54.81 55.19 56.49 57.63 58.12 57.89 55.73 59.02 57.81 57.80 57.26 54.45 53.78 53.94 53.17 54.55 54.08 55.96 54.64 53.65 53.10 52.59 53.61 51.13 49.11 60.56 59.65 56.56 62.32 65.03 65.01 65.94 65.99
52.94 53.48 53.61 53.98 53.87 53.45 52.82 56.28 59.72 60.22 54.85 55.13 58.08 57.52 57.98 59.49 59.90 57.70 59.06 58.34 59.11 60.32 56.61 56.43 55.95 53.60 55.24 54.42 50.39 57.16 51.87 54.87 53.09 54.48 54.18 59.68 60.44 61.38 63.21 64.28 63.86 64.96 65.49 65.64
52.96 53.39 53.74 53.60 53.56 53.19 52.40 55.96 59.01 58.30 55.93 56.37 56.58 56.04 58.99 59.23 60.97 61.74 56.04 59.54 60.62 61.29 61.98 58.49 56.98 53.89 55.48 51.13 52.36 54.10 56.37 57.46 54.10 54.26 56.71 58.42 59.32 61.42 63.15 64.33 65.09 65.52 66.09 65.33
52.84 53.17 53.35 53.39 53.56 53.34 51.85 56.64 59.49 58.75 55.55 51.71 54.83 59.88 57.85 60.27 61.03 60.80 61.13 59.65 60.72 59.81 59.57 56.64 55.00 53.02 57.09 53.33 54.56 53.63 56.54 58.54 54.78 55.01 58.18 58.66 59.44 61.02 62.51 63.13 63.35 62.69 63.04 62.71
52.71 52.92 53.04 52.84 52.77 52.91 53.79 58.27 60.74 60.90 55.15 51.59 53.21 56.41 56.62 58.62 60.02 59.62 59.83 59.32 58.03 56.68 55.00 54.34 53.24 56.08 55.49 56.24 55.82 53.57 56.45 55.30 52.96 52.27 59.02 58.98 59.52 61.20 61.65 60.55 60.14 60.47 59.52 58.90
52.70 52.93 52.83 52.43 52.51 52.20 56.91 56.41 61.22 62.13 59.17 52.92 49.80 56.46 55.59 59.10 59.30 58.81 58.72 58.58 57.75 56.57 54.39 53.69 54.77 57.38 56.46 52.25 51.14 56.17 57.49 57.88 57.54 57.38 61.49 61.44 61.53 61.07 61.18 60.06 59.52 59.51 59.21 59.10
52.34 52.24 51.83 51.85 52.19 55.31 54.98 54.32 56.16 53.63 59.77 54.16 50.59 51.93 56.74 58.64 58.61 58.13 57.71 58.96 57.14 56.87 55.34 53.96 54.23 55.74 55.64 52.71 48.82 54.64 56.40 57.50 59.28 60.33 61.06 59.88 60.14 58.52 59.82 58.85 58.00 57.70 58.22 57.88
51.88 51.66 51.62 52.23 51.79 52.34 54.93 58.72 55.75 55.44 57.16 55.43 49.23 50.29 52.11 59.02 54.83 53.82 58.08 55.97 57.12 56.61 54.89 54.88 53.76 55.25 55.26 50.33 54.34 55.24 56.03 57.24 58.35 59.68 61.44 61.02 60.73 59.21 58.02 58.28 57.61 56.74 56.19 56.27
51.26 51.64 52.64 55.85 55.14 55.67 57.24 53.96 54.95 59.07 56.60 51.98 51.90 48.30 48.42 56.85 55.23 56.21 56.16 56.97 52.04 56.71 53.13 53.35 53.66 51.53 49.33 53.06 54.65 55.17 56.16 56.47 57.53 59.77 60.27 59.04 58.04 57.12 57.29 57.48 57.03 56.35 56.83 56.82
50.95 54.00 56.43 53.13 57.11 53.35 56.51 57.40 54.90 54.14 55.05 54.06 49.98 53.05 48.61 52.64 54.57 53.30 53.57 53.24 51.03 49.36 51.19 54.92 51.95 50.55 54.43 54.76 56.26 57.62 57.98 58.26 58.76 57.47 57.25 57.05 56.47 56.60 56.92 56.89 57.50 56.49 56.17 56.97
55.20 53.44 53.47 56.74 56.72 57.34 55.04 52.27 51.35 52.24 49.40 51.87 53.87 53.42 50.86 56.15 49.50 52.37 55.47 51.55 51.89 45.69 49.10 49.18 48.13 49.00 53.58 56.24 57.26 57.63 59.07 59.78 59.21 59.36 58.55 58.35 58.21 57.52 57.73 56.91 56.51 56.80 57.11 57.47
49.54 50.20 53.16 56.32 55.26 53.82 49.62 48.95 51.71 50.06 47.04 55.18 53.17 54.49 54.12 55.20 57.76 54.34 52.93 49.40 50.42 44.69 53.07 48.56 46.04 53.48 56.94 57.40 56.82 57.48 58.82 59.16 58.39 58.06 58.13 58.05 58.46 58.61 58.00 57.40 56.94 57.40 57.96 58.09
53.44 50.74 51.66 52.87 52.32 42.22 43.89 41.43 47.83 47.61 53.23 55.23 54.73 53.06 55.90 56.52 56.78 53.98 51.37 45.49 44.95 51.14 46.34 46.50 49.97 55.27 56.91 58.08 59.03 57.74 59.36 58.86 57.23 57.69 57.69 58.78 57.98 58.01 57.49 56.86 57.46 57.63 57.44 57.60
51.57 49.12 40.71 47.39 46.25 47.51 47.08 47.96 48.60 52.27 54.32 54.40 54.73 54.57 54.66 54.11 51.97 51.83 46.85 50.09 51.00 45.52 42.55 45.29 50.59 56.66 57.11 58.39 59.38 58.54 57.80 56.89 56.68 56.29 57.06 56.16 55.98 57.02 57.07 57.43 58.38 57.79 56.93 57.27
49.61 50.24 41.81 47.67 52.72 54.14 55.27 55.03 53.71 54.15 55.87 54.91 54.17 54.29 52.44 52.59 49.93 50.97 49.28 45.37 43.56 46.36 46.70 51.11 55.23 57.09 57.33 57.51 57.85 57.33 56.97 56.69 55.43 55.67 55.25 54.67 57.40 56.76 56.59 57.59 57.91 57.69 58.02 57.10
50.25 49.79 48.23 51.52 50.66 51.49 52.94 52.87 51.35 54.88 57.44 56.74 55.35 51.03 48.05 47.14 51.12 47.14 45.12 44.07 42.15 47.31 52.89 54.86 57.24 57.68 57.88 57.93 57.65 57.71 57.09 56.07 55.31 55.46 55.77 57.22 57.37 56.93 56.97 57.38 57.38 57.19 56.58 56.16
47.28 49.27 52.68 51.95 51.88 51.45 52.41 55.09 53.41 57.72 55.08 51.13 52.85 45.92 45.97 51.94 48.13 46.06 49.06 47.65 51.05 53.07 52.73 56.07 58.17 58.37 58.39 58.60 57.95 57.55 57.47 56.33 55.42 55.45 56.09 57.51 58.41 58.06 57.27 56.30 57.26 57.73 57.80 57.95
MSLP
1020.08 1019.17 1018.33 1017.45 1016.40 1014.60 1012.56 1009.42 1006.10 1006.86 1006.80 1006.07 1004.43 1002.59 1001.35 1000.67 999.97 1000.31 999.81 999.44 998.65 997.76 997.30 996.97 997.16 997.04 997.00 997.77 998.09 998.08 998.40 997.59 997.22 996.86 996.52 996.97 996.81 996.21 996.22 995.97 995.95 995.75 996.57 999.21
1020.03 1019.17 1018.28 1017.34 1016.62 1016.11 1014.07 1008.67 1005.49 1006.60 1006.18 1004.04 1002.49 1001.93 1000.94 1000.17 1000.35 999.96 999.69 999.24 998.95 998.46 997.97 997.56 997.13 996.86 997.42 998.39 998.73 998.63 998.30 998.08 997.00 996.46 996.12 996.77 996.83 996.48 995.99 995.34 995.13 995.60 996.07 999.82
1020.12 1019.22 1018.18 1017.14 1016.43 1015.95 1014.86 1009.27 1005.30 1005.39 1005.56 1003.70 1002.17 1000.69 1000.65 1000.25 1000.80 1000.53 1000.01 999.75 999.53 999.12 998.56 998.04 997.44 997.15 997.76 998.79 999.14 999.76 999.37 997.80 996.82 995.59 995.51 995.30 995.82 996.15 995.93 995.68 995.09 995.34 995.87 998.69
1020.18 1019.28 1018.21 1017.04 1015.87 1015.27 1014.36 1008.42 1005.05 1004.61 1003.41 1002.87 1002.09 1001.28 1000.43 1000.10 1000.05 1000.57 1000.56 1000.23 1000.09 999.58 998.76 998.01 997.69 997.60 997.44 999.01 999.61 999.77 999.44 998.20 997.35 996.38 995.71 995.87 995.68 995.41 995.82 996.04 996.09 995.66 996.13 997.41
1020.29 1019.42 1018.44 1017.39 1015.75 1014.14 1012.45 1009.33 1007.55 1005.50 1003.96 1003.38 1002.22 1001.62 1001.40 1000.70 1000.14 1000.25 1000.42 1000.51 1000.07 999.33 999.22 998.53 997.65 997.58 997.30 997.87 998.89 999.19 998.75 998.13 997.96 997.15 996.78 996.32 996.32 996.11 996.06 995.87 996.08 996.49 996.74 998.04
1020.45 1019.64 1018.81 1017.95 1016.83 1014.23 1011.55 1011.09 1009.14 1007.91 1004.74 1003.32 1002.72 1001.76 1001.52 1001.25 1001.12 1001.00 1001.13 1000.79 1000.61 1000.12 999.83 999.62 998.64 998.85 998.20 997.35 997.67 998.59 998.34 997.99 997.98 997.51 997.01 996.20 996.20 996.46 996.27 996.09 996.27 996.42 997.45 997.72
1020.63 1019.89 1019.20 1018.47 1017.84 1017.41 1014.95 1012.62 1011.31 1008.22 1005.02 1003.62 1002.47 1002.51 1002.53 1002.13 1002.09 1001.90 1001.28 1001.75 1001.39 1001.53 1001.46 1000.69 1000.08 999.48 998.79 998.84 998.72 998.49 998.38 998.98 998.89 998.04 997.74 996.57 996.09 996.87 997.26 996.92 996.83 997.33 998.49 999.99
1020.82 1020.11 1019.43 1018.79 1018.22 1017.61 1015.52 1013.22 1012.09 1009.43 1006.48 1004.55 1003.94 1003.83 1003.41 1002.90 1002.89 1003.00 1002.43 1001.84 1002.48 1002.32 1001.76 1000.94 1000.06 999.41 999.15 998.87 999.11 999.24 999.12 999.17 998.81 998.60 997.97 997.57 997.25 997.63 997.50 997.82 997.95 998.67 999.88 1000.73
1021.05 1020.33 1019.66 1019.02 1018.43 1017.82 1015.96 1013.66 1013.54 1011.56 1008.75 1005.84 1006.26 1005.33 1004.35 1003.62 1002.33 1002.32 1002.63 1002.96 1003.01 1002.57 1001.52 1000.40 999.68 998.91 998.44 998.76 998.93 999.83 999.74 999.74 1000.19 999.51 998.72 997.90 998.07 998.78 999.35 999.18 998.78 999.62 1000.47 1001.42
1021.27 1020.59 1019.89 1019.24 1018.61 1018.04 1017.21 1014.20 1014.08 1012.47 1009.82 1007.38 1007.48 1006.00 1005.47 1004.77 1004.11 1002.94 1002.57 1002.91 1002.81 1002.64 1001.66 1000.52 999.63 999.05 998.74 998.02 998.22 999.36 999.73 1000.13 1000.00 999.85 999.77 999.60 999.45 1000.42 1000.67 1000.50 1000.58 1000.17 1000.97 1002.10
1021.36 1020.74 1020.10 1019.49 1018.92 1018.39 1017.50 1014.43 1014.45 1013.72 1011.17 1008.80 1008.19 1007.69 1007.02 1005.99 1005.52 1004.33 1004.26 1003.84 1003.11 1002.41 1002.07 1001.20 1000.31 999.69 998.99 999.37 999.22 999.40 1000.17 1000.17 1000.06 1000.42 1000.57 1000.80 1001.50 1001.76 1001.84 1002.50 1002.27 1002.25 1002.58 1003.73
1021.32 1020.75 1020.17 1019.62 1019.13 1018.64 1018.18 1014.64 1013.94 1014.38 1013.15 1009.63 1009.22 1008.74 1008.35 1008.15 1007.63 1006.81 1005.17 1004.51 1004.36 1003.67 1003.03 1002.06 1001.36 1000.72 1000.41 1000.57 1000.39 1000.78 1001.28 1001.76 1001.87 1002.29 1002.35 1003.68 1003.64 1003.46 1003.69 1003.45 1003.50 1003.66 1004.21 1004.99
1021.23 1020.69 1020.12 1019.61 1019.12 1018.75 1018.51 1016.09 1014.67 1013.53 1011.74 1009.24 1007.90 1007.22 1007.60 1007.70 1007.72 1007.51 1006.76 1005.00 1005.63 1005.40 1005.76 1004.13 1003.03 1002.42 1002.24 1001.51 1001.19 1001.67 1001.94 1002.72 1003.07 1003.31 1003.12 1004.19 1004.44 1004.62 1004.39 1004.45 1004.44 1005.07 1005.58 1006.57
1021.07 1020.54 1019.99 1019.47 1018.99 1018.57 1018.34 1015.98 1014.86 1013.94 1012.48 1009.91 1006.92 1007.54 1007.64 1007.76 1007.36 1007.53 1007.13 1006.63 1006.70 1006.48 1006.04 1004.97 1004.07 1003.33 1003.06 1002.69 1002.49 1002.19 1002.36 1003.37 1003.43 1003.55 1004.08 1005.29 1005.30 1005.17 1005.46 1005.86 1006.35 1006.89 1007.45 1007.93
1020.83 1020.24 1019.74 1019.23 1018.77 1018.35 1017.71 1015.84 1014.96 1014.87 1014.26 1011.17 1008.64 1007.54 1007.05 1007.20 1007.28 1007.51 1007.33 1007.05 1006.68 1006.19 1005.67 1005.18 1004.55 1004.14 1003.86 1003.56 1003.63 1002.68 1002.56 1002.70 1003.31 1003.37 1003.69 1004.71 1005.17 1006.31 1006.78 1007.25 1007.82 1008.39 1009.02 1009.69
1020.43 1019.84 1019.29 1018.83 1018.39 1018.13 1016.53 1014.55 1014.84 1014.86 1014.57 1012.70 1009.11 1007.24 1007.31 1007.41 1007.49 1007.50 1007.34 1007.16 1006.88 1006.63 1005.94 1005.23 1004.74 1004.37 1005.23 1004.34 1003.37 1003.04 1003.09 1003.15 1003.23 1003.72 1004.22 1005.17 1005.98 1006.99 1007.55 1008.16 1008.74 1009.29 1009.87 1010.48
1020.00 1019.32 1018.74 1018.28 1017.95 1017.28 1016.15 1015.95 1015.93 1016.20 1015.14 1012.76 1009.78 1007.08 1007.13 1007.90 1007.54 1007.35 1007.13 1007.04 1007.14 1006.59 1006.08 1005.42 1005.23 1004.86 1005.59 1005.23 1004.21 1003.63 1003.30 1003.44 1004.09 1005.17 1005.19 1005.83 1006.67 1007.33 1008.12 1008.93 1009.77 1010.35 1010.81 1011.42
1019.37 1018.73 1018.13 1017.71 1017.61 1017.37 1016.40 1016.06 1016.31 1016.19 1014.21 1012.50 1010.30 1007.83 1007.22 1007.78 1007.02 1006.84 1006.72 1006.47 1006.35 1006.34 1006.24 1005.65 1005.24 1004.97 1005.18 1004.83 1004.54 1004.12 1003.95 1004.06 1004.71 1005.43 1005.54 1006.21 1007.31 1008.14 1009.01 1009.77 1010.25 1010.69 1011.09 1011.67
1018.57 1018.12 1017.70 1017.03 1016.90 1015.47 1015.38 1016.31 1016.24 1015.47 1014.56 1011.88 1009.91 1008.40 1007.10 1008.08 1007.28 1006.73 1007.26 1006.83 1005.95 1005.35 1005.42 1005.42 1005.39 1004.80 1004.20 1004.33 1004.62 1004.48 1004.37 1004.74 1005.48 1005.79 1005.83 1006.70 1007.76 1008.77 1009.41 1009.83 1010.35 1010.54 1011.29 1011.97
1017.55 1017.36 1016.16 1015.74 1015.40 1016.07 1015.92 1015.88 1014.69 1014.20 1013.12 1012.50 1010.63 1009.11 1008.31 1008.03 1007.59 1008.09 1007.86 1007.71 1006.14 1005.30 1005.93 1005.06 1004.70 1004.44 1004.39 1003.97 1004.12 1004.66 1004.93 1005.46 1005.44 1005.73 1006.14 1007.30 1008.21 1009.01 1009.41 1009.90 1010.36 1011.00 1011.60 1012.28
1016.97 1016.61 1015.69 1015.78 1015.63 1015.04 1014.03 1013.56 1012.84 1012.27 1011.41 1010.90 1009.82 1009.36 1008.84 1008.37 1008.63 1009.26 1009.08 1008.22 1006.76 1006.63 1006.53 1006.08 1004.84 1004.49 1004.51 1004.41 1004.88 1005.69 1005.49 1005.61 1005.92 1006.11 1007.04 1007.79 1008.68 1009.32 1009.86 1010.56 1011.05 1011.71 1012.09 1012.42
1020.11 1019.92 1018.26 1016.41 1014.48 1013.27 1012.77 1011.90 1011.04 1010.76 1010.48 1010.36 1010.35 1010.42 1009.83 1009.09 1009.81 1009.90 1009.87 1009.33 1008.48 1007.76 1007.42 1006.58 1005.81 1006.66 1006.42 1005.97 1005.77 1005.94 1005.75 1005.92 1006.47 1007.26 1007.93 1008.41 1009.16 1009.95 1010.39 1010.79 1011.30 1011.83 1012.31 1012.78
1019.07 1019.09 1016.73 1014.78 1013.50 1012.77 1011.60 1011.20 1010.78 1010.84 1011.07 1011.02 1010.99 1010.75 1010.43 1009.94 1009.91 1010.04 1010.00 1009.67 1009.42 1009.36 1008.40 1006.82 1006.34 1007.48 1007.28 1006.83 1006.44 1006.34 1006.39 1006.82 1007.83 1008.22 1008.98 1009.81 1010.63 1010.85 1010.97 1011.30 1011.68 1012.07 1012.34 1012.60
1017.06 1016.46 1015.65 1013.62 1011.85 1011.05 1010.93 1011.04 1010.77 1010.78 1010.94 1011.08 1011.07 1010.96 1010.57 1009.70 1009.93 1009.72 1009.31 1009.15 1008.90 1008.44 1008.13 1007.45 1008.02 1007.80 1007.90 1007.72 1007.34 1007.61 1008.00 1008.80 1009.56 1010.41 1011.15 1011.53 1011.83 1011.56 1011.66 1011.74 1011.87 1012.16 1012.39 1012.67
1016.03 1015.47 1014.07 1011.86 1010.92 1010.63 1010.61 1010.64 1010.47 1010.43 1010.75 1010.75 1010.95 1010.90 1010.52 1010.06 1009.64 1008.54 1008.54 1008.22 1008.06 1007.69 1007.90 1008.63 1008.68 1008.72 1008.88 1008.92 1009.03 1009.45 1010.05 1010.56 1011.12 1011.79 1012.14 1012.21 1012.05 1012.05 1011.94 1011.90 1012.02 1012.29 1012.45 1012.60
1016.44 1014.90 1012.97 1011.38 1010.72 1009.82 1010.00 1010.11 1010.45 1010.19 1010.42 1010.84 1010.81 1010.55 1010.17 1009.57 1009.14 1008.92 1008.46 1008.12 1008.61 1008.77 1008.33 1008.68 1008.98 1009.31 1009.58 1009.66 1009.86 1010.23 1010.57 1011.46 1011.97 1012.09 1012.30 1012.28 1012.17 1011.96 1011.79 1011.92 1012.08 1012.07 1012.34 1012.43
1015.64 1013.35 1012.18 1011.49 1010.73 1010.10 1009.69 1009.84 1009.99 1010.03 1009.99 1010.44 1010.44 1010.30 1009.49 1009.32 1008.84 1008.50 1008.27 1008.53 1008.86 1008.62 1008.17 1008.25 1009.21 1009.65 1009.75 1010.11 1010.41 1010.79 1011.10 1011.67 1011.96 1012.40 1012.69 1012.39 1011.98 1011.81 1011.79 1011.89 1012.09 1012.17 1012.05 1012.21
Wind_Speed
24 24 26 26 26 31 10 7 7 5 10 10 11 14 22 8 8 11 11 6 12 13 10 9 17 15 9 10 9 12 14 12 11 13 8 5 13 15 16 12 13 11 2 4
23 24 26 24 23 20 9 7 4 7 9 9 13 18 21 20 10 15 10 10 6 3 11 8 13 12 11 9 7 6 10 10 12 16 15 9 11 14 15 13 14 7 8 11
22 25 26 25 24 21 7 6 6 7 8 13 13 13 17 16 11 17 14 12 13 10 12 8 7 14 10 6 11 5 6 14 15 11 11 5 19 16 11 15 8 9 12 21
21 24 25 27 28 25 6 6 4 7 7 12 14 14 12 16 16 12 12 13 18 16 14 15 14 13 10 8 7 6 10 15 17 16 16 8 15 12 16 14 16 17 9 4
21 22 24 26 31 33 7 8 6 5 10 5 10 6 13 13 11 12 9 16 18 15 19 17 15 14 15 11 14 14 14 14 10 15 14 11 14 16 16 19 13 17 13 14
21 21 22 24 26 27 5 7 6 7 4 10 10 12 13 9 13 5 9 12 9 13 10 13 10 10 13 8 10 13 16 11 13 14 17 16 13 15 17 17 16 12 10 11
20 21 20 22 20 19 10 6 7 8 11 6 5 2 4 8 10 12 3 6 12 6 7 9 12 16 14 6 11 12 9 10 11 14 16 21 13 5 9 13 11 3 3 6
21 20 20 21 18 19 10 6 6 6 9 6 5 7 8 7 6 10 13 3 6 6 7 9 12 12 16 15 16 9 15 13 13 14 16 18 22 10 11 10 13 9 8 9
20 20 19 19 19 18 11 4 7 7 8 4 9 9 8 11 9 11 9 3 6 7 10 11 13 13 16 20 18 10 15 11 11 13 18 21 17 14 10 6 11 11 11 13
19 19 19 19 18 17 11 4 8 7 8 3 8 6 10 7 9 10 5 3 7 7 9 11 11 14 17 14 17 11 11 12 15 13 15 17 7 8 1 9 4 7 8 14
18 18 18 19 18 17 11 5 5 7 7 12 8 9 9 6 7 9 9 6 10 7 9 10 10 12 9 7 14 8 9 10 10 11 16 20 9 1 7 7 2 4 8 11
18 18 18 17 16 15 13 6 4 4 6 9 12 13 12 10 9 9 6 8 5 8 6 5 7 9 5 9 10 8 10 12 11 9 8 6 6 5 4 5 4 6 10 12
18 18 17 17 13 12 8 7 6 8 8 11 10 5 5 7 10 9 9 2 7 2 5 8 7 7 9 10 9 13 9 5 7 10 0 5 2 1 2 2 7 7 9 11
18 19 18 17 13 10 8 7 6 7 7 6 4 3 4 2 8 7 10 10 6 6 6 8 8 10 8 9 13 11 5 4 5 11 2 3 3 4 7 10 11 11 10 10
19 19 19 17 14 11 9 8 3 4 7 7 10 15 10 6 8 8 9 9 8 7 7 7 9 9 11 6 11 11 10 10 9 10 5 9 11 8 10 11 11 11 11 10
20 20 18 16 13 10 8 6 3 2 5 6 6 5 4 3 6 8 8 8 6 6 7 6 8 6 3 7 12 15 11 15 7 7 5 8 13 12 12 11 10 10 9 8
21 21 18 14 10 8 6 8 5 6 6 5 6 4 8 3 6 8 8 8 6 6 7 8 9 7 6 9 14 14 10 6 6 4 5 11 15 13 12 11 10 8 9 7
22 21 16 10 7 9 5 5 2 7 6 4 5 5 3 3 6 8 7 8 7 6 7 8 6 7 6 8 12 12 14 4 2 11 10 14 13 12 12 11 9 7 6 5
23 17 9 5 5 1 5 2 5 5 6 7 3 7 2 4 7 2 1 6 9 5 6 9 8 9 9 8 10 11 7 4 9 9 12 15 15 13 12 11 7 5 7 5
23 8 7 1 5 3 6 5 4 3 4 6 7 6 7 5 2 2 6 5 7 5 6 7 4 9 13 13 11 5 5 8 10 14 13 14 14 11 9 5 7 5 5 2
5 5 3 6 1 5 5 3 5 6 4 4 3 6 8 1 6 4 2 5 4 4 4 5 5 3 6 3 6 3 6 10 10 11 12 13 11 9 8 6 6 4 2 1
8 7 7 5 5 5 5 5 3 4 1 1 3 3 6 1 1 3 2 4 4 3 4 4 6 4 5 3 3 7 8 10 10 9 11 10 10 7 6 5 4 2 2 1
3 4 5 1 3 3 4 3 2 3 4 3 5 5 2 2 3 3 4 3 2 2 5 5 3 6 3 3 2 7 7 9 7 9 10 9 7 6 5 6 3 2 3 4
5 3 3 5 6 3 5 2 2 4 4 6 6 5 2 4 4 3 4 3 3 3 3 3 1 6 7 5 4 6 13 13 15 15 9 5 1 4 4 2 3 3 3 3
4 4 5 7 3 3 2 3 4 4 5 4 3 4 4 3 5 3 2 3 5 3 2 2 5 6 7 8 8 9 7 6 7 7 6 6 15 5 5 3 4 3 2 4
4 5 7 6 6 5 3 1 3 4 3 4 4 3 3 4 1 3 4 3 4 2 2 3 6 6 6 7 8 9 11 8 4 5 4 6 6 6 4 5 5 4 4 3
4 7 8 8 8 7 4 1 3 3 4 3 3 4 2 4 3 2 3 3 1 3 4 3 4 7 8 7 7 7 7 8 7 5 6 8 6 6 5 5 4 6 5 4
Wind_Direction
348 346 344 344 344 337 277 282 229 132 173 201 217 228 243 269 258 203 257 271 290 291 252 233 232 214 232 157 249 207 232 256 236 204 207 307 295 297 213 239 240 275 46 146
349 348 345 343 345 355 306 258 117 155 218 225 222 222 242 250 227 240 237 243 244 324 284 252 244 225 102 150 229 238 246 226 251 228 209 189 236 242 267 255 260 280 295 130
348 349 347 343 343 346 284 271 207 149 209 262 289 233 233 243 208 266 277 271 279 277 255 259 278 237 141 183 241 12 290 263 249 248 236 277 191 232 218 282 256 243 228 140
348 347 348 345 342 343 267 237 294 12 196 224 236 259 264 234 237 191 263 248 247 254 253 254 210 256 182 194 153 226 239 253 268 274 291 300 289 215 213 228 273 292 49 135
348 348 349 349 345 336 251 315 335 337 291 293 262 214 247 250 242 237 238 230 271 237 241 263 263 235 239 208 176 236 221 257 271 285 274 260 267 267 272 280 230 262 287 110
351 351 352 355 356 340 356 359 290 272 232 238 226 241 226 221 261 284 260 299 286 269 270 323 328 308 304 311 199 215 243 249 249 252 260 265 233 252 258 259 269 246 262 272
353 352 352 357 358 0 305 12 297 271 265 234 277 308 296 276 256 265 255 262 255 17 305 296 275 270 265 261 260 275 247 263 277 277 281 263 256 77 311 314 273 236 308 121
352 352 352 355 354 352 313 354 333 313 284 345 290 240 271 268 250 246 259 207 333 291 269 247 236 232 235 231 245 243 269 265 266 256 252 260 270 181 218 229 251 183 232 161
350 350 351 351 353 353 316 13 328 301 303 53 351 299 307 278 232 201 247 152 276 272 262 233 248 235 226 220 219 213 253 253 268 262 266 269 287 56 29 346 253 159 203 171
346 346 348 350 350 349 324 327 357 288 293 354 337 305 340 349 303 288 138 204 236 238 258 252 245 234 247 251 225 162 218 228 246 240 249 263 48 79 179 251 11 104 195 159
345 343 344 344 345 348 337 322 10 330 310 305 316 310 312 307 258 278 44 255 216 257 246 264 262 266 267 264 272 297 300 258 245 250 263 254 33 192 285 24 28 137 145 154
337 338 340 342 341 342 335 286 14 334 265 308 323 291 295 294 313 318 305 333 305 2 290 245 295 276 289 293 280 271 247 282 308 328 7 16 343 348 7 317 135 135 145 155
334 334 334 334 332 332 331 311 315 300 256 271 228 217 163 247 238 264 284 245 7 249 335 311 307 308 308 275 249 247 236 198 254 293 193 4 323 213 147 180 119 106 109 116
328 328 329 329 322 313 311 305 346 303 298 278 124 113 209 257 258 254 269 295 263 278 276 276 266 263 242 267 284 294 31 101 242 259 245 279 242 137 118 113 114 113 115 120
324 323 323 323 315 302 278 265 300 348 322 329 321 310 270 204 218 235 236 259 263 271 250 238 253 268 277 257 273 270 268 241 250 264 332 207 141 138 136 134 130 124 116 111
319 317 316 315 307 294 265 197 157 23 317 282 284 28 234 240 255 226 233 251 245 259 270 263 261 265 296 268 253 249 246 265 240 302 140 203 141 152 153 144 136 133 125 125
313 313 311 305 290 264 301 6 17 341 300 254 279 266 127 289 251 224 227 209 245 254 270 245 257 264 184 250 259 278 283 278 168 300 223 143 159 156 143 135 112 116 111 108
310 312 309 292 279 272 231 139 238 310 264 261 273 276 239 156 244 226 205 238 224 210 248 264 252 259 207 259 268 266 271 218 131 242 192 163 154 137 137 141 143 136 122 114
310 310 306 231 229 316 55 332 261 248 294 306 257 294 8 312 256 293 135 247 252 239 221 242 249 240 237 228 241 266 261 217 230 184 193 147 142 159 157 150 152 156 129 135
304 282 211 158 34 308 256 185 201 191 215 221 269 286 277 308 307 291 339 359 247 226 295 240 250 252 264 250 221 25 242 217 201 194 151 148 161 160 156 141 90 77 87 88
326 332 354 347 0 249 222 237 214 209 203 232 261 348 320 129 291 303 219 254 323 281 21 276 242 220 319 222 104 202 201 219 190 180 164 159 160 157 137 123 117 122 132 168
335 300 281 265 239 231 241 218 190 246 214 12 313 294 280 346 289 250 308 295 303 276 321 322 256 82 20 346 244 201 199 197 155 163 163 152 137 130 127 127 135 146 132 130
177 241 247 241 245 322 205 322 338 358 347 332 320 306 269 251 240 238 205 202 286 284 221 233 93 159 65 43 214 184 192 162 100 137 121 114 122 123 131 134 142 173 214 214
244 265 280 247 199 273 37 15 329 1 346 325 320 294 277 238 199 224 250 202 241 228 228 272 24 79 80 70 77 106 97 88 76 70 61 45 318 129 133 160 150 199 224 223
261 207 246 226 271 247 30 333 290 349 25 321 308 260 242 237 261 262 287 226 230 225 85 90 87 94 109 123 112 111 113 109 114 137 162 164 239 184 196 178 182 180 230 279
274 253 258 242 261 244 193 226 312 336 34 335 287 288 250 255 264 233 234 308 15 26 4 125 133 144 144 137 136 135 125 100 65 10 315 233 212 211 218 175 222 209 250 293
226 232 225 278 310 315 314 273 272 15 337 328 284 286 260 294 249 246 23 27 82 185 245 127 86 180 176 177 181 176 167 164 165 193 254 257 240 229 220 217 265 269 249 240